Location: Tierz
(42.1336°N, 0.3549°W)
Time: 16:08:33
(UTC+00:00)

Cosmos 1697 Rocket - Pass Details

Date: 29 October 2020
Orbit: 831 x 845 km, 71.0° (Epoch: 24 November)

Event Time Altitude Azimuth Distance (km) Brightness Sun altitude
Rises 18:47:34 0° 212° (SSW) 3,363 6.3 -20.7°
Reaches altitude 10° 18:50:01 10° 216° (SW) 2,434 5.5 -21.2°
Maximum altitude 18:55:32 62° 297° (WNW) 934 3.1 -22.2°
Drops below altitude 10° 19:01:07 10° 18° (NNE) 2,457 4.9 -23.2°
Enters shadow 19:01:37 - 19° (NNE) 2,640 5.1 -23.3°
